This is the latest recevied weather packets stored in our database for station/object KB9GXK. If no packets are shown the sender has not sent any weather packets the latest 10 day(s).
| Time | Temp. | Humidity | Pressure | Rain* | Wind** | Luminosity | Snow |
|---|---|---|---|---|---|---|---|
| 1778067643 | 5° C | 72% | 1013.4 hPa | 0 mm | - | 51 W/m² | - |
| 1778067341 | 4.44° C | 74% | 1013.4 hPa | 0 mm | - | 44 W/m² | - |
| 1778067038 | 3.89° C | 77% | 1013.3 hPa | 0 mm | - | 38 W/m² | - |
| 1778066734 | 3.33° C | 79% | 1013.4 hPa | 0 mm | - | 31 W/m² | - |
| 1778066432 | 2.78° C | 81% | 1013.2 hPa | 0 mm | - | 26 W/m² | - |
| 1778066130 | 2.22° C | 82% | 1013.3 hPa | 0 mm | - | 21 W/m² | - |
| 1778065827 | 1.67° C | 83% | 1013.2 hPa | 0 mm | - | 17 W/m² | - |
| 1778065525 | 1.67° C | 83% | 1013.1 hPa | 0 mm | - | 13 W/m² | - |
| 1778065222 | 1.67° C | 83% | 1013 hPa | 0 mm | - | 10 W/m² | - |
| 1778064917 | 1.67° C | 83% | 1013 hPa | 0 mm | - | 8 W/m² | - |
| 1778064615 | 1.67° C | 83% | 1012.6 hPa | 0 mm | - | 6 W/m² | - |
| 1778064313 | 1.67° C | 83% | 1012.6 hPa | 0 mm | - | 4 W/m² | - |
| 1778064011 | 1.67° C | 82% | 1012.4 hPa | 0 mm | - | 2 W/m² | - |
| 1778063708 | 1.67° C | 82% | 1012.5 hPa | 0 mm | - | 1 W/m² | - |
| 1778063404 | 1.67° C | 82% | 1012.4 hPa | 0 mm | - | 1 W/m² | - |
| 1778063103 | 2.22° C | 82% | 1012.4 hPa | 0 mm | - | 0 W/m² | - |
| 1778062800 | 2.22° C | 82% | 1012.3 hPa | 0 mm | - | 0 W/m² | - |
| 1778062496 | 1.67° C | 82% | 1012.1 hPa | 0 mm | - | 0 W/m² | - |
| 1778062193 | 2.22° C | 81% | 1012.4 hPa | 0 mm | - | 0 W/m² | - |
| 1778061892 | 2.22° C | 81% | 1012.6 hPa | 0 mm | - | 0 W/m² | - |
| 1778061589 | 2.22° C | 81% | 1012.4 hPa | 0 mm | - | 0 W/m² | - |
| 1778061288 | 2.22° C | 81% | 1012.5 hPa | 0 mm | - | 0 W/m² | - |
| 1778060983 | 2.22° C | 81% | 1012.4 hPa | 0 mm | - | 0 W/m² | - |
| 1778060682 | 2.22° C | 81% | 1012.4 hPa | 0 mm | - | 0 W/m² | - |
| 1778060379 | 2.22° C | 81% | 1012.3 hPa | 0 mm | - | 0 W/m² | - |
* Rain latest hour (hover to see other rain measurements)
** Current wind speed in m/s (hover to see current wind gust speed)